www.pogodaiklimat.ru

Погода и климат >> Архив погоды >> Норвегия >> Конгсёйа


ПОГОДА на Конгсёйа

  • Прогноз погоды на Конгсёйа
  • Монитор погоды на Конгсёйа

АРХИВ ПОГОДЫ на Конгсёйа

Время (UTC), дата Ветер
(напр.,м/с)
 
Видим.   Явления Облачность Т
(С)
Тd
(С)
f
(%)
Тe
(С)
Тes
(С)
Комфортность P
(гПа)
Po
(гПа)
Тmin
(С)
Tmax
(С)
R
(мм)
R24
(мм)
S
(см)
10 11.06 С 3
{4}
н/о н/о +2.0 -4.7 61 -2 -2 1023.6 1022.0
11 11.06 СЗ 4
{4}
н/о н/о +1.4 -2.3 76 -4 -4 1023.7 1022.1
12 11.06 СЗ 4
{6}
н/о н/о +2.2 -3.5 66 -2 -2 1023.7 1022.1
13 11.06 С 5
{5}
н/о н/о +1.7 -4.8 62 -3 -3 1023.7 1022.2
14 11.06
{6}
н/о н/о +1.5 -4.5 64 1023.9 1022.3
15 11.06 С 5
{6}
н/о н/о +0.9 -4.7 66 -5 -5 1023.8 1022.2
16 11.06 С 5
{7}
н/о н/о +0.4 -4.2 71 -5 -5 1023.8 1022.2
17 11.06 С 7
{8}
н/о н/о +0.3 -4.7 69 -6 -6 1023.7 1022.1
18 11.06
{8}
н/о н/о -0.2 -3.8 77 1023.7 1022.1 -0.3 +2.4
19 11.06
{6}
н/о н/о -0.6 -4.0 78 1023.8 1022.2
20 11.06 С 5
{6}
н/о н/о -1.0 -4.1 79 -7 -7 1023.9 1022.3
21 11.06 С 6
{7}
н/о н/о -1.6 -4.4 81 -9 -9 1024.2 1022.6
22 11.06 С 6
{8}
н/о н/о -2.3 -4.5 85 -9 -9 1024.4 1022.8
23 11.06 СВ 5
{8}
н/о н/о -2.8 -4.3 89 -10 -10 1024.7 1023.1
00 12.06 С 5
{8}
н/о н/о -2.8 -4.3 89 -10 -10 1024.9 1023.3
01 12.06 С 5
{7}
н/о н/о -2.6 -4.2 89 -9 -9 1024.9 1023.3
02 12.06 СВ 6
{7}
н/о н/о -2.5 -4.3 87 -10 -10 1025.1 1023.5
03 12.06 СВ 7
{8}
н/о н/о -2.7 -4.3 89 -11 -11 1025.1 1023.5
04 12.06 СВ 7
{9}
н/о н/о -3.1 -4.6 89 -11 -11 1025.4 1023.8
05 12.06 СВ 8
{10}
н/о н/о -3.0 -4.8 87 -11 -11 1025.5 1023.9
06 12.06 СВ 7
{10}
н/о н/о -2.7 -4.6 87 -11 -11 1025.8 1024.2 -3.2 -0.2
07 12.06 С 6
{8}
н/о н/о -2.4 -4.5 85 -10 -10 1025.8 1024.2
08 12.06 С 6
{7}
н/о н/о -2.0 -4.2 85 -9 -9 1026.1 1024.5
09 12.06 С 6
{8}
н/о н/о -2.1 -4.4 84 -9 -9 1026.6 1024.9
10 12.06 С 5
{7}
н/о н/о -1.7 -4.2 83 -8 -8 1026.8 1025.2
11 12.06 С 5
{6}
н/о н/о -1.6 -4.1 83 -8 -8 1026.8 1025.2
12 12.06
{8}
н/о н/о -1.4 -4.0 82 1026.9 1025.3
13 12.06 С 4
{5}
н/о н/о -1.2 -3.9 82 -7 -7 1027.0 1025.4
14 12.06
{5}
н/о н/о -1.4 -3.5 86 1026.8 1025.2
15 12.06
{4}
н/о н/о -1.5 -3.6 86 1027.1 1025.4
16 12.06 С 2
{4}
н/о н/о -1.3 -3.4 86 -5 -5 1026.7 1025.1
17 12.06 СЗ 2
{3}
н/о н/о -1.2 -3.4 85 -5 -5 1026.3 1024.7
18 12.06 З 2
{5}
н/о н/о -1.3 -3.5 85 -5 -5 1026.1 1024.5 -3.2 -0.5
19 12.06 З 2
{2}
н/о н/о -1.0 -3.5 83 -5 -5 1025.7 1024.1
20 12.06 штиль 0
{2}
н/о н/о -1.7 -3.6 87 -3 -3 1025.5 1023.9
21 12.06 Ю 1
{2}
н/о н/о -2.4 -3.6 91 -5 -5 1025.3 1023.7
22 12.06 Ю 1
{2}
н/о н/о -2.9 -3.6 95 -5 -5 1025.0 1023.4
23 12.06 штиль 0
{2}
н/о н/о -3.3 -3.9 96 -5 -5 1024.7 1023.1
00 13.06 штиль 0
{2}
н/о н/о -1.9 -2.9 93 -3 -3 1024.0 1022.4
01 13.06 Ю 1
{2}
н/о н/о -2.2 -3.1 94 -5 -5 1023.4 1021.8
02 13.06 Ю 1
{2}
н/о н/о -1.2 -2.3 92 -3 -3 1023.0 1021.4
03 13.06 ЮЗ 1
{4}
н/о н/о +0.8 -3.1 75 -1 -1 1022.3 1020.7
04 13.06 З 5
{5}
н/о н/о +1.5 -2.8 73 -4 -4 1021.9 1020.3
05 13.06 З 3
{5}
н/о н/о +1.3 -2.8 74 -3 -3 1021.5 1019.9
06 13.06 Ю 1
{5}
н/о н/о +2.0 -2.5 72 +1 +1 1020.6 1019.0 -3.3 +2.5
07 13.06 З 4
{6}
н/о н/о +1.7 -1.4 80 -3 -3 1019.7 1018.1
08 13.06 ЮЗ 4
{7}
н/о н/о +2.9 -2.4 68 -2 -2 1019.0 1017.4
09 13.06 Ю 3
{4}
н/о н/о +1.3 -0.9 85 -3 -3 1018.1 1016.5
10 13.06 ЮЗ 2
{5}
н/о н/о +1.2 -0.9 86 -2 -2 1017.7 1016.1
11 13.06 З 4
{5}
н/о н/о +1.2 -0.7 87 -4 -4 1017.1 1015.6
12 13.06 СЗ 6
{7}
н/о н/о +2.1 -1.0 80 -4 -4 1016.0 1014.5
13 13.06 СЗ 7
{8}
н/о н/о +2.1 -1.7 76 -4 -4 1015.6 1014.0
14 13.06 СЗ 7
{9}
н/о н/о +2.2 -0.9 80 -4 -4 1015.6 1014.0
15 13.06 СЗ 6
{8}
н/о н/о +3.2 -0.4 77 -2 -2 1014.9 1013.4
16 13.06 СЗ 6
{7}
н/о н/о +2.8 -0.3 80 -3 -3 1014.9 1013.3
17 13.06 СЗ 6
{7}
н/о н/о +2.2 -0.5 82 -4 -4 1014.9 1013.3
18 13.06 СЗ 6
{9}
н/о н/о +1.8 -0.4 85 -4 -4 1014.3 1012.7 +0.9 +3.3
19 13.06 СЗ 5
{6}
н/о н/о +2.1 -0.3 84 -3 -3 1013.8 1012.3
20 13.06 СЗ 6
{7}
н/о н/о +2.1 0.0 86 -4 -4 1013.8 1012.3
21 13.06 СЗ 9
{10}
н/о н/о +2.4 +0.2 85 -5 -5 1013.5 1011.9
22 13.06 СЗ 8
{10}
н/о н/о +1.7 +0.1 89 -5 -5 1013.5 1011.9
00 14.06 СЗ 6 н/о н/о +1.6 +0.1 90 -5 -5 1012.3 1010.7
01 14.06 СЗ 7
{8}
н/о н/о +1.7 +0.2 90 -5 -5 1011.8 1010.2
02 14.06
{9}
н/о н/о +1.6 0.0 89 1012.1 1010.5
03 14.06
{6}
н/о н/о +1.9 -0.2 86 1011.7 1010.1
04 14.06 С 7
{11}
н/о н/о +1.5 -0.4 87 -5 -5 1011.9 1010.4
05 14.06
{8}
н/о н/о +1.4 -0.5 87 1012.9 1011.3
06 14.06
{11}
н/о н/о +1.3 -0.5 88 1013.2 1011.6
08 14.06 СЗ 6
{8}
н/о н/о +2.9 -0.7 77 -3 -3 1013.7 1012.1
09 14.06 СЗ 6
{8}
н/о н/о +2.5 -0.6 80 -3 -3 1014.0 1012.4
10 14.06 СЗ 7
{9}
н/о н/о +3.4 -0.4 76 -2 -2 1014.3 1012.7
11 14.06 СЗ 5
{9}
н/о н/о +3.5 -0.3 76 -1 -1 1014.2 1012.7
12 14.06 СЗ 6 н/о н/о +2.1 -0.5 83 -4 -4 1013.6 1012.1
13 14.06 З 5
{8}
н/о н/о +3.0 -0.4 78 -2 -2 1013.1 1011.5
14 14.06 З 7
{8}
н/о н/о +2.7 -0.7 78 -3 -3 1012.5 1010.9
15 14.06 СЗ 9
{11}
н/о н/о +3.2 -0.2 78 -3 -3 1011.6 1010.0
16 14.06 СЗ 9
{11}
н/о н/о +3.3 -0.1 78 -3 -3 1011.1 1009.5
17 14.06 СЗ 7
{10}
н/о н/о +3.0 -0.1 80 -3 -3 1010.9 1009.4
18 14.06 СЗ 8
{11}
н/о н/о +3.1 -0.2 79 -3 -3 1010.3 1008.8
19 14.06 СЗ 6
{9}
н/о н/о +2.6 -0.1 82 -3 -3 1009.9 1008.4
20 14.06 СЗ 5
{7}
н/о н/о +2.2 -0.2 84 -3 -3 1010.0 1008.4
21 14.06 СЗ 6
{7}
н/о н/о +1.5 -0.3 88 -5 -5 1009.7 1008.1
22 14.06 СЗ 6
{7}
н/о н/о +1.5 -0.3 88 -5 -5 1008.9 1007.3
23 14.06 СЗ 6
{8}
н/о н/о +1.4 -0.2 89 -5 -5 1008.3 1006.7
00 15.06 СЗ 5
{9}
н/о н/о +1.5 -0.3 88 -4 -4 1007.8 1006.2
01 15.06 СЗ 7
{9}
н/о н/о +1.7 -0.4 86 -5 -5 1007.3 1005.7
02 15.06 СЗ 6
{7}
н/о н/о +1.6 -0.3 87 -5 -5 1006.7 1005.1
03 15.06 СЗ 6
{8}
н/о н/о +2.2 -0.2 84 -4 -4 1005.7 1004.2
04 15.06 СЗ 7
{8}
н/о н/о +2.7 0.0 82 -4 -4 1005.3 1003.8
05 15.06 СЗ 6
{8}
н/о н/о +2.1 -0.3 84 -4 -4 1005.0 1003.5
06 15.06 СЗ 6
{9}
н/о н/о +2.9 -0.5 78 -3 -3 1004.7 1003.2 +1.2 +3.1
07 15.06 СЗ 6
{7}
н/о н/о +2.6 -0.8 78 -3 -3 1004.4 1002.8
08 15.06 СЗ 7
{8}
н/о н/о +2.6 -1.2 76 -4 -4 1004.1 1002.6
09 15.06 СЗ 7
{9}
н/о н/о +2.3 -1.3 77 -4 -4 1004.0 1002.4
10 15.06 С 8
{12}
н/о н/о +2.3 -1.5 76 -4 -4 1003.7 1002.1
11 15.06 СЗ 9
{11}
н/о н/о +2.3 -1.5 76 -5 -5 1003.7 1002.2
12 15.06 СЗ 8
{12}
н/о н/о +2.1 -1.7 76 -5 -5 1003.8 1002.3
13 15.06 С 11
{13}
н/о н/о +1.5 -1.9 78 -6 -6 1003.8 1002.3
14 15.06 С 12
{14}
н/о н/о +1.3 -2.3 77 -7 -7 1003.5 1002.0
15 15.06 СЗ 12
{16}
н/о н/о +1.1 -2.6 76 -7 -7 1003.4 1001.8
16 15.06 СЗ 10
{15}
н/о н/о +1.5 -2.1 77 -6 -6 1003.2 1001.6
17 15.06 СЗ 13
{15}
н/о н/о +1.1 -2.5 77 -7 -7 1002.9 1001.3
18 15.06 СЗ 12
{16}
н/о н/о +0.7 -2.5 79 -8 -8 1002.8 1001.2 +0.7 +2.9
19 15.06 С 12
{15}
н/о н/о +0.8 -2.4 79 -8 -8 1002.4 1000.8
20 15.06 СЗ 10
{15}
н/о н/о +0.8 -2.2 80 -7 -7 1002.6 1001.0
21 15.06 СЗ 12
{17}
н/о н/о +0.8 -2.6 78 -8 -8 1002.3 1000.7
22 15.06 СЗ 13
{15}
н/о н/о +0.5 -2.5 80 -8 -8 1002.0 1000.5
23 15.06 СЗ 14
{16}
н/о н/о +0.4 -2.8 79 -9 -9 1001.5 999.9
00 16.06 С 15
{17}
н/о н/о +0.6 -2.9 77 -9 -9 1001.0 999.4
01 16.06 С 14
{19}
н/о н/о +0.8 -2.6 78 -8 -8 1000.6 999.1
02 16.06 СЗ 14
{18}
н/о н/о +0.8 -2.9 76 -8 -8 1000.7 999.1
03 16.06 С 15
{18}
н/о н/о +1.0 -2.7 76 -8 -8 1000.1 998.6
04 16.06 С 16
{20}
н/о н/о +1.2 -2.9 74 -8 -8 1000.2 998.6
05 16.06 СЗ 16
{21}
н/о н/о +0.2 -2.7 81 -9 -9 1000.2 998.7
06 16.06 С 14
{21}
н/о н/о +0.3 -2.4 82 -9 -9 1000.3 998.7 0.0 +1.3
07 16.06 С 15
{19}
н/о н/о +0.4 -2.6 80 -9 -9 1000.0 998.5
08 16.06 СЗ 14
{17}
н/о н/о +0.4 -2.5 81 -9 -9 1000.0 998.4
09 16.06 С 15
{18}
н/о н/о +0.7 -2.2 81 -9 -9 999.8 998.3
10 16.06 С 16
{19}
н/о н/о +0.5 -2.0 83 -9 -9 999.9 998.3
11 16.06 С 18
{20}
н/о н/о +0.7 -2.2 81 -9 -9 999.4 997.8
12 16.06 С 17
{20}
н/о н/о +0.7 -2.3 80 -9 -9 1000.2 998.6
13 16.06 С 17
{20}
н/о н/о +0.5 -2.2 82 -9 -9 1000.1 998.6
14 16.06 С 15
{20}
н/о н/о +0.5 -2.4 81 -9 -9 1000.7 999.1
15 16.06 С 14
{18}
н/о н/о +0.4 -2.3 82 -9 -9 1000.9 999.4
16 16.06 С 15
{17}
н/о н/о +0.3 -2.2 83 -9 -9 1001.1 999.5
17 16.06 С 13
{15}
н/о н/о +0.2 -2.0 85 -9 -9 1001.6 1000.0
18 16.06
{20}
н/о н/о 0.0 -1.5 90 1001.4 999.9 0.0 +0.8
19 16.06
{16}
н/о н/о +0.1 -1.8 87 1001.7 1000.2
20 16.06 С 12
{16}
н/о н/о 0.0 -1.8 88 -9 -9 1002.2 1000.7
21 16.06
{15}
н/о н/о 0.0 -2.0 86 1002.1 1000.5
22 16.06
{14}
н/о н/о -0.1 -1.9 88 1002.6 1001.1
23 16.06 С 12
{13}
н/о н/о -0.2 -1.9 88 -9 -9 1002.5 1000.9
00 17.06
{16}
н/о н/о -0.3 -1.7 90 1002.7 1001.1
01 17.06
{15}
н/о н/о -0.4 -1.7 91 1002.9 1001.3
02 17.06
{13}
н/о н/о -0.5 -1.6 92 1003.0 1001.5
03 17.06 С 10
{13}
н/о н/о -0.6 -1.5 94 -9 -9 1003.2 1001.7
04 17.06 С 11
{15}
н/о н/о -0.3 -1.4 92 -9 -9 1003.4 1001.8
05 17.06 С 9
{12}
н/о н/о -0.2 -1.2 93 -8 -8 1003.8 1002.2
06 17.06 С 8
{15}
н/о н/о +0.2 -1.5 88 -7 -7 1004.1 1002.6 -0.7 +0.3
07 17.06 С 9
{11}
н/о н/о +0.2 -1.2 90 -8 -8 1004.3 1002.7
08 17.06 С 8
{10}
н/о н/о +0.4 -1.7 86 -7 -7 1004.7 1003.2
09 17.06 С 8
{10}
н/о н/о +0.5 -2.0 83 -7 -7 1005.1 1003.6
10 17.06 С 7
{9}
н/о н/о +0.4 -1.7 86 -7 -7 1005.8 1004.2
11 17.06 С 7
{9}
н/о н/о +0.4 -1.2 89 -7 -7 1006.4 1004.8
12 17.06 С 7
{11}
н/о н/о +0.5 -1.2 88 -7 -7 1006.7 1005.1
13 17.06
{8}
н/о н/о +0.4 -1.5 87 1006.9 1005.3
14 17.06
{10}
н/о н/о +0.4 -1.7 86 1006.9 1005.3
15 17.06 С 6
{8}
н/о н/о +0.6 -1.6 85 -6 -6 1007.1 1005.5
16 17.06 С 5
{7}
н/о н/о +0.6 -1.5 86 -5 -5 1007.4 1005.8
17 17.06 С 5
{6}
н/о н/о +0.4 -1.8 85 -6 -6 1007.2 1005.7
18 17.06 С 5
{10}
н/о н/о +0.5 -1.9 84 -5 -5 1007.2 1005.6 0.0 +1.1
19 17.06 С 4
{6}
н/о н/о 0.0 -2.2 85 -5 -5 1007.1 1005.5
20 17.06 СВ 2
{5}
н/о н/о 0.0 -2.4 84 -4 -4 1007.0 1005.4
21 17.06 ЮЗ 1
{2}
н/о н/о +0.6 -2.3 81 -1 -1 1006.9 1005.3
22 17.06 Ю 3
{3}
н/о н/о -0.4 -1.7 91 -5 -5 1006.4 1004.9
23 17.06 З 1
{4}
н/о н/о -0.7 -1.7 93 -3 -3 1006.0 1004.5
00 18.06 СЗ 3
{6}
н/о н/о -1.0 -2.7 88 -6 -6 1005.9 1004.3
01 18.06 С 2
{4}
н/о н/о -1.2 -2.5 91 -5 -5 1005.9 1004.3
02 18.06 СЗ 1
{2}
н/о н/о -1.0 -2.4 90 -3 -3 1005.9 1004.3
03 18.06 З 2
{3}
н/о н/о -1.2 -2.7 90 -5 -5 1005.7 1004.1
05 18.06 СЗ 4
{5}
н/о н/о +0.9 -3.2 74 -4 -4 1005.4 1003.9
06 18.06
{8}
н/о н/о +0.9 -3.2 74 1005.5 1004.0 -2.2 +1.1
07 18.06 С 5
{7}
н/о н/о +1.1 -3.2 73 -4 -4 1005.6 1004.0
08 18.06 С 5
{7}
н/о н/о +1.6 -2.7 73 -4 -4 1005.8 1004.3
09 18.06 С 6
{7}
н/о н/о +1.0 -2.9 75 -5 -5 1006.1 1004.5
10 18.06 С 6
{8}
н/о н/о +0.7 -2.8 77 -6 -6 1006.2 1004.6

 

Местоположение метеостанции Конгсёйа (Норвегия): широта 78.93 долгота 28.89 высота над уровнем моря 20 м.

В архиве по умолчанию представлена погода на Конгсёйа за последнюю неделю. Архивные данные за месяц целиком и за предыдущие месяцы, начиная с января 2011 года, Вы можете получить, выбрав интересующий диапазон дат из раскрывающегося списка и нажав кнопку "Ввод!".


*Определитесь, кто Вы:
робот инопланетянин человек

Внимание! Время в таблицах - всемирное. Для получения местного времени необходимо прибавить поправку, которая равна 1 ч.

Смотрите также архив погоды в соседних городах и на ближайших метеорологических станциях:

Погода на Острове Белый (Норвегия) (137 км)
Погода на Эдже (Норвегия) (153 км)
Погода на Острове Карла XII (Норвегия) (206 км)
Погода в Пирамиде (Норвегия) (272 км)
Погода в Хопене (Норвегия) (284 км)
Погода на Верлегенхукен (Норвегия) (284 км)
Погода в Свальбард аэропорту (Норвегия) (303 км)
Погода в Баренцбурге (Шпицберген, Россия) (337 км)
Погода на Акселойа (Норвегия) (346 км)
Погода в Ню-Олесунн (Норвегия) (361 км)

Пояснения к столбцам:

Ветер - указаны скорость ветра в м/с - средняя за 10 мин, порывы в срок и между сроками (в фигурных скобках) и направление, откуда дует ветер: С - северный, СВ - северо-восточный, В - восточный, ЮВ - юго-восточный, Ю - южный, ЮЗ - юго-западный, З - западный, СЗ - северо-западный.
Видимость - горизонтальная дальность видимости в метрах или километрах. При видимости от 1 до 10 км при отсутствии осадков обычно наблюдается дымка, при ухудшении видимости до 1 км и менее - туман. В сухую погоду видимость может ухудшаться дымом, пылью или мглою.
Явления - указаны атмосферные явления, наблюдавшиеся в срок или в последний час перед сроком; фигурными скобками обозначены явления, наблюдавшиеся между сроками (за 1-3 часа до срока); квадратными скобками обозначены град или гололедные отложения с указанием их диаметра в мм.
Облачность - указаны через наклонную черту общая и нижняя облачность в баллах и высота нижней границы облаков в метрах; квадратными скобками обозначены формы облаков: Ci - перистые, Cs - перисто-слоистые, Cc - перисто-кучевые, Ac - высококучевые, As - высокослоистые, Sc - слоисто-кучевые, Ns - слоисто-дождевые, Cu - кучевые, Cb - кучево-дождевые. Подробнее классификацию облаков см. в Атласе облаков (PDF).
T - Температура воздуха - температура, измеренная на высоте 2 м над землей.
Td - Температура точки росы - температура, при понижении до которой содержащийся в воздухе водяной пар достигнет насыщения.
f - Относительная влажность воздуха - влажноcть воздуха, измеренная на высоте 2 м над землей.
Te - Эффективная температура - температура, которую ощущает одетый по сезону человек в тени. Характеристика душности погоды. При расчете учитывается влияние влажности воздуха и скорости ветра на теплоощущения человека.
Tes - Эффективная температура на солнце - температура, которую ощущает человек, с поправкой на солнечный нагрев. Характеристика знойности погоды. Зависит от высоты солнца над горизонтом, облачности и скорости ветра. Ночью, в пасмурную погоду, а также при ветре 12 м/с и более поправка равна нулю.
P - Атмосферное давление - приведенное к уровню моря атмосферное давление.
Po - Атмосферное давление - измеренное на уровне метеостанции атмосферное давление.
Tmin - Минимальная температура - минимум температуры воздуха на высоте 2 м над землей.
Tmax - Максимальная температура - максимум температуры воздуха на высоте 2 м над землей.
R - Количество осадков - Количество выпавших осадков за период времени, мм. При наведении курсора мыши на число - период времени, за который выпало указанное количество осадков.
R24 - Количество осадков - Количество выпавших осадков за 24 часа, мм.
S - Снежный покров - Высота снежного покрова, см. При наведении курсора мыши на число - состояние снежного покрова и степень покрытия местности в баллах.